Vorticity
nan nan nan nan nan nan nan nan nan nan nan nan nan nan nan nan nan nan nan nan nan nan nan nan nan nan nan nan nan nan nan nan nan nan nan nan nan nan nan nan nan nan nan nan nan
nan 8 8 8 8 8 8 7 8 8 7 7 7 7 7 11 17 12 15 10 10 6 4 6 5 6 1 5 14 13 7 14 12 10 5 8 4 13 11 2 10 17 12 8 nan
nan 7 8 8 9 9 8 8 8 8 8 7 7 7 7 11 16 21 14 6 5 3 -1 3 6 7 12 14 3 8 0 15 12 13 9 3 -0 6 12 14 1 7 5 5 nan
nan 7 7 8 8 9 8 9 8 8 8 8 8 8 11 12 8 17 11 7 5 5 4 8 10 6 9 15 8 1 13 13 12 13 8 4 7 -2 3 7 5 14 6 7 nan
nan 7 7 7 8 9 9 9 9 9 9 8 8 10 13 8 16 11 6 7 5 5 6 8 5 8 10 7 9 6 20 6 6 6 10 5 12 9 4 -0 15 11 7 4 nan
nan 8 8 8 8 8 10 10 10 9 9 9 9 10 10 6 17 12 5 4 4 6 4 6 -0 5 12 15 10 10 7 7 7 4 6 7 1 10 8 11 23 6 7 5 nan
nan 8 8 8 8 8 10 11 12 11 10 10 10 7 6 15 6 8 5 5 7 5 6 5 6 5 2 6 12 15 -5 9 19 6 5 5 2 6 3 20 14 7 4 3 nan
nan 8 8 9 9 9 10 12 16 15 11 11 9 7 6 16 6 8 8 6 6 3 4 8 12 3 8 5 8 9 2 7 4 7 9 9 -0 -4 7 8 12 17 5 7 nan
nan 8 9 9 9 9 10 15 21 19 13 9 5 6 6 5 13 10 9 8 7 5 5 5 9 10 14 3 2 -1 -6 10 13 6 4 8 1 10 8 3 16 12 4 11 nan
nan 6 8 8 9 10 15 19 16 15 9 1 6 9 19 10 14 9 11 9 10 7 6 6 7 10 9 4 15 4 6 9 10 11 9 3 9 11 9 12 5 -1 11 15 nan
nan 6 7 8 10 11 20 17 10 7 4 2 4 8 11 13 10 11 9 12 10 8 9 7 4 6 7 13 18 10 12 -0 24 22 7 4 6 11 9 11 7 2 15 12 nan
nan 8 8 8 8 18 17 -2 -0 7 21 14 2 3 3 12 5 12 8 7 9 8 8 4 6 6 4 18 9 -2 0 11 17 4 3 13 11 17 8 7 7 1 6 12 nan
nan 9 8 8 24 25 6 2 2 10 15 21 24 10 6 2 6 10 6 5 8 8 6 7 9 5 6 9 7 2 -6 7 9 9 7 3 6 8 11 11 7 3 2 10 nan
nan 9 6 22 21 10 19 12 5 8 17 32 17 13 10 2 12 11 9 3 3 11 9 6 2 8 15 6 7 5 16 13 -2 1 4 6 12 4 6 16 13 8 7 8 nan
nan 9 16 19 11 4 7 8 10 13 13 25 13 10 14 4 8 17 11 2 7 6 8 9 9 12 4 6 6 4 8 7 5 10 12 6 3 5 12 14 19 12 9 7 nan
nan 7 20 19 10 4 2 13 14 9 15 6 10 13 6 5 1 14 8 7 6 11 9 6 8 15 9 11 7 9 5 9 6 7 14 15 6 8 6 5 20 31 8 1 nan
nan 12 15 9 5 7 17 17 9 7 9 13 9 5 6 6 5 6 8 8 5 7 9 11 10 8 14 12 9 9 4 6 12 11 13 16 14 17 12 15 9 2 14 22 nan
nan 27 23 6 9 9 10 11 8 10 -1 2 15 10 11 5 10 3 5 7 6 2 9 12 14 12 6 9 10 15 6 1 -2 10 11 1 20 26 20 20 20 2 9 20 nan
nan 29 12 17 9 10 13 6 4 -4 -1 15 16 12 6 7 9 6 3 7 10 7 2 6 22 19 6 10 9 6 8 5 5 1 5 9 3 11 19 10 7 16 13 10 nan
nan 17 21 14 12 10 10 8 2 -3 3 12 8 11 12 13 6 4 9 7 8 10 10 3 14 12 8 9 6 7 13 11 8 8 5 6 8 21 11 6 9 6 4 6 nan
nan 11 19 10 8 8 9 9 7 5 7 8 9 7 14 11 12 9 4 8 15 13 9 7 1 8 12 12 12 8 4 7 7 11 12 6 19 17 11 12 6 8 11 8 nan
nan 13 10 7 5 7 8 6 2 7 18 12 5 7 7 10 17 14 8 10 12 15 8 6 11 12 14 6 7 8 12 1 8 5 8 11 18 9 17 11 10 10 7 6 nan
nan 15 12 6 7 8 11 9 4 11 10 11 9 8 7 7 8 11 15 11 5 12 16 12 4 5 7 21 22 7 3 6 6 6 9 19 12 11 11 12 14 10 7 7 nan
nan 16 13 6 4 5 10 11 20 18 3 6 11 14 12 10 6 7 8 11 11 10 3 13 11 6 7 13 6 11 14 3 9 12 1 9 6 9 9 8 10 8 8 7 nan
nan 1 8 12 3 7 11 11 10 9 18 11 8 9 9 12 10 11 8 6 15 9 -0 8 9 4 12 7 13 2 -5 14 12 5 10 2 9 18 10 8 7 8 8 7 nan
nan 6 9 10 7 11 13 8 6 12 11 10 14 11 15 12 11 15 16 14 10 5 11 5 8 10 8 0 4 24 5 15 19 4 13 10 15 16 13 13 12 9 8 6 nan
nan nan nan nan nan nan nan nan nan nan nan nan nan nan nan nan nan nan nan nan nan nan nan nan nan nan nan nan nan nan nan nan nan nan nan nan nan nan nan nan nan nan nan nan nan
CAPE
1 4 4 3 3 2 2 2 1 1 1 1 0 0 0 0 0 0 0 0 0 0 0 0 0 0 0 141 342 299 146 0 25 0 427 598 160 71 30 24 58 42 16 1 1
4 4 4 0 0 0 3 2 2 2 1 0 2 0 0 0 0 0 0 0 0 0 0 0 6 0 14 53 89 495 188 61 363 241 303 470 359 145 41 74 51 40 15 0 4
4 3 4 1 3 3 2 0 0 2 2 0 0 0 0 0 0 0 0 0 0 0 0 0 5 0 0 4 33 588 467 259 135 123 83 492 29 196 83 70 82 57 1 0 10
0 4 4 4 4 3 2 3 2 1 1 1 0 0 0 0 0 0 0 0 0 0 0 0 0 2 2 16 37 688 655 414 184 91 10 294 282 139 109 97 56 10 13 4 17
1 0 3 4 3 2 3 2 2 1 1 0 0 0 0 0 0 0 1 0 0 0 0 0 0 6 0 58 263 408 367 390 225 202 455 278 240 190 12 2 151 46 22 26 37
0 0 2 4 4 2 2 3 0 0 0 0 0 0 0 0 0 0 0 0 0 0 0 0 2 1 0 39 474 200 479 350 179 61 55 132 445 559 39 73 101 85 46 59 42
1 0 0 4 4 1 2 1 1 0 0 0 0 0 0 0 0 0 0 0 0 0 0 0 0 0 0 208 416 419 556 76 457 211 70 41 106 114 76 147 89 53 108 80 58
0 0 1 2 3 1 1 0 0 0 0 0 0 0 0 0 0 0 0 0 0 0 0 0 0 0 0 229 37 774 409 24 566 125 0 0 80 19 1 0 136 88 128 119 96
0 1 0 1 1 0 0 0 0 0 0 0 0 0 0 0 0 0 0 0 0 0 0 0 0 0 0 342 558 102 9 0 311 293 14 0 9 46 8 1 94 63 61 76 86
0 0 0 0 0 0 0 0 0 0 0 0 0 0 0 0 0 0 0 0 0 0 0 0 0 0 0 10 238 17 13 0 164 450 574 88 46 1 125 447 128 104 99 171 98
1 1 0 0 0 0 0 0 0 0 0 0 0 0 0 0 0 0 0 0 0 0 0 0 0 0 0 8 132 34 0 5 24 861 603 371 374 103 103 220 243 23 9 81 143
0 1 0 0 0 0 0 0 0 0 0 0 0 0 0 0 0 0 0 0 0 0 0 0 0 0 0 4 104 313 111 101 638 444 615 4 448 535 57 303 28 0 68 155 137
0 0 0 0 0 0 0 0 0 0 0 0 0 0 0 0 0 0 0 0 0 0 0 0 0 0 0 0 9 88 194 86 50 131 317 190 125 501 340 277 35 0 205 185 152
0 0 0 0 0 0 0 0 0 0 0 0 0 0 0 0 0 0 0 0 0 0 0 0 0 0 0 0 0 0 52 60 2 0 74 275 362 13 0 28 594 221 46 127 321
0 0 0 0 0 0 0 0 0 0 0 0 0 0 0 0 0 0 0 0 0 0 0 0 0 0 0 0 0 0 6 20 4 0 2 38 105 124 3 46 437 583 449 362 351
0 0 0 0 0 0 0 0 0 0 0 0 0 0 0 0 0 0 0 0 0 0 0 0 0 0 0 0 0 0 4 11 1 0 0 18 84 93 6 69 76 776 547 418 685
0 0 0 0 0 0 0 0 0 0 0 0 0 0 0 0 0 0 0 0 0 0 0 0 0 0 0 0 0 0 0 0 11 17 42 104 151 269 129 245 3 0 103 625 978
0 0 0 0 0 0 0 0 0 0 0 0 3 0 0 0 0 0 0 0 0 0 0 0 0 0 0 0 0 0 0 0 152 375 130 197 260 221 209 75 94 0 496 1198 1158
0 0 0 0 0 0 0 0 0 0 0 0 0 4 0 0 0 0 0 0 0 0 0 0 9 0 0 0 0 0 0 0 6 184 64 83 144 122 66 36 3 193 819 981 1030
0 0 0 0 0 0 0 0 0 0 0 0 0 2 2 2 0 3 4 0 0 0 0 0 7 0 0 0 0 0 0 0 0 118 180 104 129 320 197 36 56 297 166 440 575
0 0 0 0 0 0 0 0 0 0 0 0 0 0 3 1 20 20 2 5 0 0 0 0 1 19 6 0 0 0 0 5 23 68 72 130 88 481 239 173 54 41 49 109 273
0 0 0 0 0 0 0 0 0 0 0 0 0 0 0 0 44 32 41 25 2 0 0 0 0 50 70 0 0 0 9 11 10 116 16 13 74 31 65 79 29 148 130 345 240
0 0 0 0 0 0 0 0 0 0 0 0 0 0 0 0 0 0 5 36 3 0 0 1 0 0 14 57 0 0 0 23 18 42 119 221 341 186 171 57 398 852 441 732 460
0 0 0 0 0 0 0 0 0 0 0 0 0 0 0 0 0 0 0 0 0 0 21 0 1 0 1 142 126 127 0 0 10 64 107 292 417 508 435 347 468 650 521 732 556
0 0 0 0 3 3 0 0 0 0 0 0 0 0 0 0 0 0 0 0 18 149 0 0 0 0 8 70 50 19 74 90 0 9 45 186 57 328 514 394 211 494 540 702 693
0 0 0 0 0 0 0 0 0 0 0 0 3 0 0 0 0 0 0 14 12 9 0 0 55 0 0 2 0 7 12 77 11 32 28 27 59 162 452 462 582 693 751 721 843
0 0 0 0 0 0 0 0 1 4 0 3 1 11 11 26 17 16 6 0 1 18 31 23 89 235 40 0 18 1 16 170 88 119 86 119 220 594 412 300 403 613 624 693 796